This is the latest recevied weather packets stored in our database for station/object WX0ABE-13. If no packets are shown the sender has not sent any weather packets the latest 10 day(s).
| Time | Temp. | Humidity | Pressure | Rain* | Wind** | Luminosity | Snow |
|---|---|---|---|---|---|---|---|
| 1788281011 | 22.78° C | 73% | 1018.6 hPa | 0 mm | - | 357 W/m² | - |
| 1788280732 | 21.67° C | 75% | 1018.5 hPa | 0 mm | - | 354 W/m² | - |
| 1788280407 | 21.11° C | 77% | 1018.5 hPa | 0 mm | - | 314 W/m² | - |
| 1788280102 | 21.11° C | 76% | 1018.6 hPa | 0 mm | - | 300 W/m² | - |
| 1788279800 | 20.56° C | 77% | 1018.9 hPa | 0 mm | - | 478 W/m² | - |
| 1788279500 | 20.56° C | 76% | 1018.6 hPa | 0 mm | - | 460 W/m² | - |
| 1788279195 | 20° C | 79% | 1018.6 hPa | 0 mm | - | 373 W/m² | - |
| 1788278890 | 20° C | 81% | 1018.7 hPa | 0 mm | - | 361 W/m² | - |
| 1788278586 | 19.44° C | 81% | 1018.9 hPa | 0 mm | - | 288 W/m² | - |
| 1788278285 | 19.44° C | 82% | 1018.5 hPa | 0 mm | - | 236 W/m² | - |
| 1788277980 | 18.89° C | 83% | 1018.6 hPa | 0 mm | - | 206 W/m² | - |
| 1788277675 | 18.89° C | 83% | 1018.6 hPa | 0 mm | - | 195 W/m² | - |
| 1788277370 | 18.89° C | 84% | 1018.9 hPa | 0 mm | - | 156 W/m² | - |
| 1788277065 | 18.89° C | 84% | 1018.9 hPa | 0 mm | - | 144 W/m² | - |
| 1788276765 | 18.33° C | 84% | 1018.6 hPa | 0 mm | - | 122 W/m² | - |
| 1788276464 | 18.33° C | 84% | 1018.5 hPa | 0 mm | - | 133 W/m² | - |
| 1788276163 | 18.33° C | 85% | 1018.7 hPa | 0 mm | - | 142 W/m² | - |
| 1788275858 | 18.33° C | 86% | 1018.5 hPa | 0 mm | - | 155 W/m² | - |
| 1788275553 | 17.78° C | 86% | 1018.5 hPa | 0 mm | - | 124 W/m² | - |
| 1788275252 | 17.78° C | 87% | 1018.7 hPa | 0 mm | - | 83 W/m² | - |
| 1788274950 | 17.78° C | 87% | 1018.3 hPa | 0 mm | - | 83 W/m² | - |
| 1788274648 | 17.78° C | 87% | 1018.5 hPa | 0 mm | - | 73 W/m² | - |
| 1788274348 | 17.78° C | 87% | 1018.9 hPa | 0 mm | - | 46 W/m² | - |
| 1788274044 | 17.78° C | 87% | 1018.9 hPa | 0 mm | - | 67 W/m² | - |
| 1788273739 | 17.78° C | 86% | 1019 hPa | 0 mm | - | 40 W/m² | - |
* Rain latest hour (hover to see other rain measurements)
** Current wind speed in m/s (hover to see current wind gust speed)